| time (UTC) | temp C | wind direction | speed KPH | gust KPH | rain 1hr cm | rain 24hr cm | rain mn cm | humidity % | barometer mb |
| 20260505100746 | 6 | 75 | 3.2 | 4.8 | 0.00 | 0.23 | 0.00 | 90 | 1012.0 |
| 20260505100656 | 6 | 85 | 3.2 | 4.8 | 0.00 | 0.23 | 0.00 | 90 | 1011.8 |
| 20260505100246 | 6 | 85 | 3.2 | 4.8 | 0.00 | 0.23 | 0.00 | 90 | 1011.8 |
| 20260505100145 | -17 | 76 | 3.2 | 4.8 | 0.00 | 0.00 | 0.00 | ||
| 20260505100135 | 6 | 76 | 3.2 | 4.8 | 0.00 | 0.23 | 0.00 | 89 | 1011.8 |
| 20260505095748 | -17 | 76 | 3.2 | 4.8 | 0.00 | 0.00 | 0.00 | ||
| 20260505095745 | 6 | 76 | 3.2 | 4.8 | 0.00 | 0.23 | 0.00 | 89 | 1011.8 |
| 20260505095640 | 6 | 78 | 3.2 | 4.8 | 0.00 | 0.23 | 0.00 | 91 | 1011.9 |
| 20260505095244 | 6 | 78 | 3.2 | 4.8 | 0.00 | 0.23 | 0.00 | 91 | 1011.9 |
| 20260505095154 | 7 | 61 | 3.2 | 4.8 | 0.00 | 0.23 | 0.00 | 91 | 1011.9 |
| 20260505094744 | 7 | 61 | 3.2 | 4.8 | 0.00 | 0.23 | 0.00 | 91 | 1011.9 |
| 20260505094654 | 7 | 71 | 3.2 | 4.8 | 0.00 | 0.23 | 0.00 | 91 | 1011.9 |
| 20260505094243 | 7 | 71 | 3.2 | 4.8 | 0.00 | 0.23 | 0.00 | 91 | 1011.9 |
| 20260505094149 | 7 | 77 | 3.2 | 6.4 | 0.00 | 0.23 | 0.00 | 91 | 1011.8 |
| 20260505093742 | 7 | 77 | 3.2 | 6.4 | 0.00 | 0.23 | 0.00 | 91 | 1011.8 |
| 20260505093643 | 7 | 72 | 3.2 | 4.8 | 0.00 | 0.23 | 0.00 | 90 | 1011.8 |
| 20260505093242 | 7 | 72 | 3.2 | 4.8 | 0.00 | 0.23 | 0.00 | 90 | 1011.8 |
| 20260505093153 | 7 | 72 | 3.2 | 4.8 | 0.00 | 0.23 | 0.00 | 90 | 1012.0 |
| 20260505092741 | 7 | 72 | 3.2 | 4.8 | 0.00 | 0.23 | 0.00 | 90 | 1012.0 |
| 20260505092637 | 7 | 68 | 4.8 | 8.0 | 0.00 | 0.23 | 0.10 | 90 | 825.9 |
| 20260505092241 | 7 | 68 | 4.8 | 8.0 | 0.00 | 0.23 | 0.10 | 90 | 825.9 |
| 20260505091740 | 7 | 80 | 6.4 | 11.3 | 0.00 | 0.23 | 0.10 | 89 | 825.7 |
| 20260505091239 | 7 | 64 | 6.4 | 9.7 | 0.00 | 0.23 | 0.10 | 89 | 825.7 |
| 20260505090739 | 7 | 70 | 8.0 | 14.5 | 0.00 | 0.23 | 0.10 | 88 | 825.7 |
| 20260505090238 | 8 | 66 | 8.0 | 11.3 | 0.00 | 0.23 | 0.10 | 87 | 825.8 |
| 20260505085737 | 8 | 57 | 1.6 | 3.2 | 0.00 | 0.23 | 0.00 | 88 | 1011.9 |
| 20260505085237 | 8 | 66 | 3.2 | 4.8 | 0.00 | 0.23 | 0.10 | 87 | 826.0 |
| 20260505084736 | 8 | 75 | 1.6 | 3.2 | 0.00 | 0.23 | 0.00 | 85 | 1012.0 |
| 20260505084235 | 8 | 80 | 1.6 | 3.2 | 0.00 | 0.23 | 0.00 | 84 | 1012.0 |
| 20260505083735 | 8 | 48 | 1.6 | 4.8 | 0.00 | 0.23 | 0.00 | 88 | 1012.0 |
| 20260505083234 | 8 | 82 | 1.6 | 4.8 | 0.00 | 0.23 | 0.00 | 84 | 1012.0 |
| 20260505082733 | 8 | 52 | 1.6 | 3.2 | 0.00 | 0.23 | 0.00 | 86 | 1012.2 |
| 20260505082233 | 8 | 29 | 0.0 | 1.6 | 0.00 | 0.23 | 0.00 | 87 | 1012.4 |
| 20260505082142 | 8 | 40 | 1.6 | 1.6 | 0.00 | 0.23 | 0.00 | 87 | 1012.3 |
| 20260505081732 | 8 | 40 | 1.6 | 1.6 | 0.00 | 0.23 | 0.00 | 87 | 1012.3 |
| 20260505081232 | 8 | 28 | 0.0 | 1.6 | 0.00 | 0.23 | 0.00 | 87 | 1012.3 |
| 20260505080731 | 8 | 337 | 0.0 | 1.6 | 0.00 | 0.23 | 0.00 | 87 | 1012.3 |
| 20260505080231 | 8 | 36 | 1.6 | 1.6 | 0.00 | 0.23 | 0.00 | 88 | 1012.2 |
| 20260505075730 | 8 | 346 | 1.6 | 1.6 | 0.00 | 0.23 | 0.00 | 88 | 1012.2 |
| 20260505075229 | 8 | 167 | 1.6 | 1.6 | 0.00 | 0.23 | 0.00 | 87 | 1012.2 |
| 20260505075139 | 8 | 221 | 0.0 | 1.6 | 0.00 | 0.23 | 0.00 | 90 | 1012.2 |
| 20260505074729 | 8 | 221 | 0.0 | 1.6 | 0.00 | 0.23 | 0.00 | 90 | 1012.2 |
| 20260505074228 | 8 | 256 | 0.0 | 1.6 | 0.00 | 0.23 | 0.00 | 90 | 1012.2 |
| 20260505073727 | 8 | 205 | 1.6 | 1.6 | 0.00 | 0.23 | 0.00 | 91 | 1012.3 |
| 20260505073638 | 8 | 223 | 1.6 | 1.6 | 0.00 | 0.23 | 0.00 | 91 | 1012.2 |
| 20260505073227 | 8 | 223 | 1.6 | 1.6 | 0.00 | 0.23 | 0.00 | 91 | 1012.2 |
| 20260505073138 | 8 | 227 | 0.0 | 1.6 | 0.00 | 0.23 | 0.00 | 92 | 1012.3 |
| 20260505072726 | 8 | 227 | 0.0 | 1.6 | 0.00 | 0.23 | 0.00 | 92 | 1012.3 |
| 20260505072226 | 8 | 209 | 1.6 | 1.6 | 0.00 | 0.23 | 0.00 | 92 | 1012.3 |
| 20260505072137 | 8 | 228 | 1.6 | 1.6 | 0.00 | 0.23 | 0.00 | 92 | 1012.3 |
| 20260505071725 | 8 | 228 | 1.6 | 1.6 | 0.00 | 0.23 | 0.00 | 92 | 1012.3 |
| 20260505071224 | 8 | 215 | 1.6 | 1.6 | 0.00 | 0.23 | 0.00 | 92 | 1012.4 |
| 20260505070724 | 8 | 224 | 1.6 | 1.6 | 0.00 | 0.23 | 0.00 | 93 | 1012.3 |
| 20260505070223 | 8 | 239 | 1.6 | 1.6 | 0.00 | 0.23 | 0.00 | 93 | 1012.4 |
| 20260505065722 | 8 | 249 | 0.0 | 1.6 | 0.00 | 0.23 | 0.00 | 94 | 1012.4 |
| 20260505065222 | 8 | 224 | 1.6 | 1.6 | 0.00 | 0.23 | 0.00 | 93 | 1012.4 |
| 20260505064721 | 8 | 227 | 1.6 | 1.6 | 0.00 | 0.23 | 0.00 | 93 | 1012.4 |
| 20260505064221 | 8 | 250 | 0.0 | 1.6 | 0.00 | 0.23 | 0.00 | 93 | 1012.4 |
| 20260505063720 | 8 | 227 | 1.6 | 1.6 | 0.00 | 0.23 | 0.00 | 93 | 1012.4 |
| 20260505063219 | 8 | 217 | 1.6 | 1.6 | 0.00 | 0.23 | 0.00 | 94 | 1012.4 |
| 20260505062718 | 8 | 275 | 0.0 | 1.6 | 0.00 | 0.23 | 0.00 | 94 | 1012.5 |
| 20260505062218 | 8 | 273 | 0.0 | 1.6 | 0.00 | 0.23 | 0.00 | 93 | 1012.5 |
| 20260505061717 | 8 | 183 | 0.0 | 1.6 | 0.00 | 0.23 | 0.00 | 93 | 1012.6 |
| 20260505061216 | 8 | 259 | 0.0 | 1.6 | 0.00 | 0.23 | 0.00 | 93 | 1012.8 |
| 20260505060716 | 8 | 217 | 0.0 | 1.6 | 0.00 | 0.23 | 0.00 | 93 | 1012.6 |
| 20260505060215 | 8 | 252 | 1.6 | 1.6 | 0.00 | 0.23 | 0.00 | 93 | 1012.6 |
| 20260505055714 | 8 | 232 | 1.6 | 1.6 | 0.00 | 0.23 | 3.58 | 93 | 1012.6 |
| 20260505055624 | 8 | 205 | 1.6 | 1.6 | 0.03 | 0.23 | 3.58 | 93 | 1012.5 |
| 20260505055214 | 8 | 205 | 1.6 | 1.6 | 0.03 | 0.23 | 3.58 | 93 | 1012.5 |
| 20260505054713 | 8 | 127 | 0.0 | 0.0 | 0.03 | 0.23 | 3.58 | 93 | 1012.4 |
| 20260505054624 | 8 | 176 | 0.0 | 1.6 | 0.03 | 0.23 | 3.58 | 92 | 1012.3 |
| 20260505054212 | 8 | 176 | 0.0 | 1.6 | 0.03 | 0.23 | 3.58 | 92 | 1012.3 |
| 20260505054123 | 8 | 202 | 0.0 | 1.6 | 0.03 | 0.23 | 3.58 | 92 | 1012.4 |
| 20260505053712 | 8 | 202 | 0.0 | 1.6 | 0.03 | 0.23 | 3.58 | 92 | 1012.4 |
| 20260505053211 | 8 | 196 | 1.6 | 1.6 | 0.03 | 0.23 | 3.58 | 93 | 1012.4 |
| 20260505052711 | 8 | 235 | 0.0 | 1.6 | 0.03 | 0.23 | 3.58 | 94 | 1012.5 |
| 20260505052210 | 8 | 236 | 0.0 | 1.6 | 0.03 | 0.23 | 3.66 | 93 | 1012.4 |
| 20260505051709 | 8 | 241 | 1.6 | 1.6 | 0.03 | 0.23 | 3.68 | 93 | 1012.6 |
| 20260505051616 | 8 | 256 | 0.0 | 1.6 | 0.03 | 0.23 | 3.68 | 93 | 1012.6 |
| 20260505051208 | 8 | 256 | 0.0 | 1.6 | 0.03 | 0.23 | 3.68 | 93 | 1012.6 |
| 20260505051116 | 8 | 234 | 0.0 | 1.6 | 0.03 | 0.23 | 3.68 | 94 | 1012.6 |
| 20260505050708 | 8 | 234 | 0.0 | 1.6 | 0.03 | 0.23 | 3.68 | 94 | 1012.6 |
| 20260505050610 | 8 | 230 | 0.0 | 0.0 | 0.03 | 0.23 | 3.71 | 94 | 1012.6 |
| 20260505050207 | 8 | 230 | 0.0 | 0.0 | 0.03 | 0.23 | 3.71 | 94 | 1012.6 |
| 20260505041701 | 8 | 274 | 0.0 | 1.6 | 0.03 | 0.18 | 2.49 | 91 | 1013.0 |
| 20260505041201 | 8 | 300 | 0.0 | 1.6 | 0.03 | 0.18 | 2.41 | 91 | 1013.0 |
| 20260505040700 | 8 | 288 | 0.0 | 0.0 | 0.03 | 0.18 | 2.34 | 90 | 1012.9 |
| 20260505040159 | 9 | 306 | 0.0 | 1.6 | 0.03 | 0.18 | 2.16 | 88 | 1012.8 |
| 20260505040109 | 10 | 289 | 0.0 | 1.6 | 0.03 | 0.18 | 2.06 | 86 | 1012.6 |
| 20260505035659 | 10 | 289 | 0.0 | 1.6 | 0.03 | 0.18 | 2.06 | 86 | 1012.6 |
| 20260505035158 | 10 | 314 | 0.0 | 1.6 | 0.00 | 0.18 | 1.78 | 82 | 1012.6 |
| 20260505035109 | 11 | 277 | 0.0 | 1.6 | 0.00 | 0.18 | 1.75 | 78 | 1012.6 |
| 20260505034657 | 11 | 277 | 0.0 | 1.6 | 0.00 | 0.18 | 1.75 | 78 | 1012.6 |
| 20260505034157 | 11 | 309 | 0.0 | 0.0 | 0.00 | 0.15 | 1.52 | 72 | 1012.5 |
| 20260505033656 | 11 | 4 | 0.0 | 1.6 | 0.00 | 0.15 | 1.42 | 69 | 1012.5 |
| 20260505033156 | 11 | 27 | 0.0 | 1.6 | 0.00 | 0.15 | 1.42 | 64 | 1012.3 |
| 20260505032655 | 11 | 36 | 1.6 | 1.6 | 0.00 | 0.15 | 1.42 | 63 | 1012.0 |
| 20260505032154 | 11 | 32 | 1.6 | 1.6 | 0.00 | 0.15 | 1.42 | 63 | 1011.9 |
| 20260505031654 | 11 | 27 | 1.6 | 3.2 | 0.00 | 0.15 | 1.42 | 62 | 1011.9 |
| 20260505031555 | 11 | 37 | 1.6 | 4.8 | 0.00 | 0.15 | 1.42 | 61 | 1011.9 |
| 20260505031153 | 11 | 37 | 1.6 | 4.8 | 0.00 | 0.15 | 1.42 | 61 | 1011.9 |
| 20260505031100 | 11 | 34 | 1.6 | 3.2 | 0.00 | 0.15 | 1.42 | 62 | 1011.8 |
| 20260505030652 | 11 | 34 | 1.6 | 3.2 | 0.00 | 0.15 | 1.42 | 62 | 1011.8 |
| 20260505030554 | 11 | 47 | 1.6 | 1.6 | 0.00 | 0.15 | 1.42 | 61 | 1011.7 |
| 20260505030152 | 11 | 47 | 1.6 | 1.6 | 0.00 | 0.15 | 1.42 | 61 | 1011.7 |
| 20260505030054 | 11 | 40 | 3.2 | 3.2 | 0.00 | 0.15 | 1.42 | 61 | 1011.6 |
| 20260505025651 | 11 | 40 | 3.2 | 3.2 | 0.00 | 0.15 | 1.42 | 61 | 1011.6 |
| 20260505025554 | 12 | 31 | 1.6 | 3.2 | 0.00 | 0.15 | 1.42 | 61 | 1011.5 |
| 20260505025151 | 12 | 31 | 1.6 | 3.2 | 0.00 | 0.15 | 1.42 | 61 | 1011.5 |
| 20260505024650 | 12 | 33 | 1.6 | 1.6 | 0.00 | 0.15 | 1.42 | 61 | 1011.3 |
| 20260505024553 | 12 | 53 | 1.6 | 3.2 | 0.00 | 0.15 | 1.42 | 62 | 1011.3 |
| 20260505024149 | 12 | 53 | 1.6 | 3.2 | 0.00 | 0.15 | 1.42 | 62 | 1011.3 |
| 20260505023649 | 12 | 43 | 1.6 | 3.2 | 0.00 | 0.15 | 1.42 | 62 | 1011.3 |
| 20260505023552 | 12 | 48 | 1.6 | 3.2 | 0.00 | 0.15 | 1.45 | 62 | 1011.3 |
| 20260505023148 | 12 | 48 | 1.6 | 3.2 | 0.00 | 0.15 | 1.45 | 62 | 1011.3 |
| 20260505023056 | 12 | 55 | 3.2 | 4.8 | 0.00 | 0.15 | 1.42 | 63 | 1011.3 |
| 20260505022647 | 12 | 55 | 3.2 | 4.8 | 0.00 | 0.15 | 1.42 | 63 | 1011.3 |
| 20260505022556 | 12 | 40 | 3.2 | 6.4 | 0.00 | 0.15 | 1.83 | 60 | 1011.5 |
| 20260505022147 | 12 | 40 | 3.2 | 6.4 | 0.00 | 0.15 | 1.83 | 60 | 1011.5 |
| 20260505022055 | 12 | 50 | 3.2 | 4.8 | 0.00 | 0.15 | 1.91 | 58 | 1011.3 |
| 20260505021646 | 12 | 50 | 3.2 | 4.8 | 0.00 | 0.15 | 1.91 | 58 | 1011.3 |
| 20260505021146 | 12 | 50 | 4.8 | 8.0 | 0.03 | 0.15 | 0.05 | 61 | 825.2 |
| 20260505020645 | 12 | 54 | 4.8 | 6.4 | 0.05 | 0.15 | 0.05 | 60 | 825.4 |
| 20260505020144 | 12 | 70 | 6.4 | 9.7 | 0.05 | 0.15 | 0.05 | 59 | 825.4 |
| 20260505015644 | 12 | 65 | 3.2 | 3.2 | 0.05 | 0.15 | 1.73 | 58 | 1011.3 |
| 20260505015143 | 12 | 68 | 1.6 | 3.2 | 0.05 | 0.15 | 1.73 | 59 | 1011.2 |
| 20260505014642 | 12 | 91 | 1.6 | 1.6 | 0.05 | 0.15 | 1.73 | 58 | 1011.1 |
| 20260505014552 | 13 | 93 | 1.6 | 4.8 | 0.05 | 0.15 | 1.73 | 56 | 1011.0 |
| 20260505014142 | 13 | 93 | 1.6 | 4.8 | 0.05 | 0.15 | 1.73 | 56 | 1011.0 |
| 20260505013641 | 13 | 106 | 3.2 | 8.0 | 0.05 | 0.15 | 0.05 | 51 | 825.1 |
| 20260505013141 | 13 | 81 | 1.6 | 1.6 | 0.05 | 0.15 | 1.70 | 51 | 1011.1 |
| 20260505012640 | 13 | 62 | 0.0 | 0.0 | 0.05 | 0.15 | 1.70 | 52 | 1011.1 |
| 20260505012550 | 13 | 42 | 0.0 | 1.6 | 0.05 | 0.15 | 1.63 | 56 | 1011.1 |
| 20260505012140 | 13 | 42 | 0.0 | 1.6 | 0.05 | 0.15 | 1.63 | 56 | 1011.1 |
| 20260505011639 | 13 | 338 | 0.0 | 1.6 | 0.05 | 0.15 | 1.35 | 55 | 1011.0 |
| 20260505011539 | 14 | 27 | 1.6 | 3.2 | 0.03 | 0.13 | 1.09 | 52 | 1011.1 |
| 20260505011138 | 14 | 27 | 1.6 | 3.2 | 0.03 | 0.13 | 1.09 | 52 | 1011.1 |
| 20260505011024 | 15 | 302 | 0.0 | 1.6 | 0.00 | 0.10 | 0.28 | 49 | 1011.1 |
| 20260505010638 | 15 | 302 | 0.0 | 1.6 | 0.00 | 0.10 | 0.28 | 49 | 1011.1 |
| 20260505010137 | 15 | 262 | 0.0 | 0.0 | 0.00 | 0.10 | 0.03 | 43 | 1011.0 |
| 20260505010023 | 15 | 22 | 1.6 | 1.6 | 0.00 | 0.10 | 0.00 | 42 | 1010.9 |
| 20260505005636 | 15 | 22 | 1.6 | 1.6 | 0.00 | 0.10 | 0.00 | 42 | 1010.9 |
| 20260505005538 | 15 | 320 | 0.0 | 0.0 | 0.00 | 0.10 | 0.00 | 43 | 1010.9 |
| 20260505005135 | 15 | 320 | 0.0 | 0.0 | 0.00 | 0.10 | 0.00 | 43 | 1010.9 |
| 20260505005042 | 15 | 20 | 1.6 | 1.6 | 0.00 | 0.10 | 0.00 | 41 | 1010.8 |
| 20260505004635 | 15 | 20 | 1.6 | 1.6 | 0.00 | 0.10 | 0.00 | 41 | 1010.8 |
| 20260505004134 | 15 | 2 | 1.6 | 1.6 | 0.00 | 0.10 | 0.00 | 39 | 1010.6 |
| 20260505004041 | 15 | 30 | 3.2 | 4.8 | 0.00 | 0.10 | 0.00 | 39 | 1010.5 |
| 20260505003633 | 15 | 30 | 3.2 | 4.8 | 0.00 | 0.10 | 0.00 | 39 | 1010.5 |
| 20260505003535 | 15 | 28 | 3.2 | 4.8 | 0.00 | 0.10 | 0.00 | 38 | 1010.4 |
| 20260505003133 | 15 | 28 | 3.2 | 4.8 | 0.00 | 0.10 | 0.00 | 38 | 1010.4 |
| 20260505002632 | 16 | 35 | 3.2 | 4.8 | 0.00 | 0.10 | 0.00 | 37 | 1010.4 |
| 20260505002540 | 16 | 40 | 3.2 | 4.8 | 0.00 | 0.10 | 0.00 | 37 | 1010.4 |
| 20260505002131 | 16 | 40 | 3.2 | 4.8 | 0.00 | 0.10 | 0.00 | 37 | 1010.4 |
| 20260505001631 | 16 | 33 | 3.2 | 4.8 | 0.00 | 0.10 | 0.00 | 37 | 1010.3 |
| 20260505001130 | 16 | 39 | 6.4 | 9.7 | 0.00 | 0.10 | 0.00 | 36 | 1010.3 |
| 20260505000629 | 16 | 32 | 3.2 | 4.8 | 0.00 | 0.10 | 0.00 | 36 | 1010.2 |
| 20260505000129 | 16 | 31 | 3.2 | 6.4 | 0.00 | 0.10 | 0.00 | 36 | 1010.2 |
| 20260504235628 | 16 | 32 | 4.8 | 9.7 | 0.00 | 0.10 | 0.00 | 35 | 1009.9 |
| 20260504235127 | 16 | 34 | 4.8 | 6.4 | 0.00 | 0.10 | 0.00 | 34 | 1009.9 |
| 20260504234626 | 17 | 35 | 3.2 | 6.4 | 0.03 | 0.10 | 0.00 | 34 | 1009.9 |
| 20260504234126 | 17 | 29 | 1.6 | 4.8 | 0.03 | 0.10 | 0.00 | 33 | 1009.8 |
| 20260504234036 | 17 | 32 | 3.2 | 4.8 | 0.03 | 0.10 | 0.00 | 32 | 1009.8 |
| 20260504233625 | 17 | 32 | 3.2 | 4.8 | 0.03 | 0.10 | 0.00 | 32 | 1009.8 |
| 20260504233535 | 17 | 37 | 4.8 | 4.8 | 0.03 | 0.10 | 0.00 | 32 | 1009.7 |
| 20260504233125 | 17 | 37 | 4.8 | 4.8 | 0.03 | 0.10 | 0.00 | 32 | 1009.7 |
| 20260504232624 | 17 | 32 | 4.8 | 9.7 | 0.03 | 0.10 | 0.00 | 32 | 1009.8 |
| 20260504232534 | 17 | 39 | 3.2 | 4.8 | 0.03 | 0.10 | 0.00 | 32 | 1009.8 |
| 20260504232123 | 17 | 39 | 3.2 | 4.8 | 0.03 | 0.10 | 0.00 | 32 | 1009.8 |
| 20260504231622 | 17 | 42 | 3.2 | 4.8 | 0.03 | 0.10 | 0.00 | 31 | 1009.8 |
| 20260504231524 | 17 | 32 | 1.6 | 4.8 | 0.03 | 0.10 | 0.00 | 31 | 1009.7 |
| 20260504231122 | 17 | 32 | 1.6 | 4.8 | 0.03 | 0.10 | 0.00 | 31 | 1009.7 |
| 20260504231023 | 17 | 28 | 1.6 | 3.2 | 0.03 | 0.10 | 0.00 | 31 | 1009.6 |
| 20260504230621 | 17 | 28 | 1.6 | 3.2 | 0.03 | 0.10 | 0.00 | 31 | 1009.6 |
| 20260504230523 | 17 | 26 | 1.6 | 4.8 | 0.03 | 0.10 | 0.00 | 31 | 1009.6 |
| 20260504230121 | 17 | 26 | 1.6 | 4.8 | 0.03 | 0.10 | 0.00 | 31 | 1009.6 |
| 20260504230017 | 17 | 44 | 4.8 | 6.4 | 0.05 | 0.10 | 0.00 | 31 | 1009.5 |
| 20260504225620 | 17 | 44 | 4.8 | 6.4 | 0.05 | 0.10 | 0.00 | 31 | 1009.5 |
| 20260504225119 | 17 | 33 | 3.2 | 4.8 | 0.10 | 0.10 | 0.00 | 31 | 1009.5 |
| 20260504225016 | 17 | 32 | 3.2 | 4.8 | 0.08 | 0.08 | 0.00 | 31 | 1009.6 |
| 20260504224619 | 17 | 32 | 3.2 | 4.8 | 0.08 | 0.08 | 0.00 | 31 | 1009.6 |
| 20260504224526 | 17 | 32 | 3.2 | 4.8 | 0.08 | 0.08 | 0.00 | 31 | 1009.6 |
| 20260504224118 | 17 | 32 | 3.2 | 4.8 | 0.08 | 0.08 | 0.00 | 31 | 1009.6 |
| 20260504224025 | 17 | 41 | 3.2 | 4.8 | 0.08 | 0.08 | 0.00 | 31 | 1009.3 |
| 20260504223617 | 17 | 41 | 3.2 | 4.8 | 0.08 | 0.08 | 0.00 | 31 | 1009.3 |
| 20260504223117 | 17 | 35 | 4.8 | 6.4 | 0.08 | 0.08 | 0.00 | 31 | 1009.3 |
| 20260504223019 | 17 | 33 | 4.8 | 8.0 | 0.08 | 0.08 | 0.00 | 31 | 1009.5 |
| 20260504222616 | 17 | 33 | 4.8 | 8.0 | 0.08 | 0.08 | 0.00 | 31 | 1009.5 |
| 20260504222524 | 17 | 42 | 4.8 | 6.4 | 0.08 | 0.08 | 0.00 | 30 | 1009.3 |
| 20260504222115 | 17 | 42 | 4.8 | 6.4 | 0.08 | 0.08 | 0.00 | 30 | 1009.3 |
| 20260504222018 | 17 | 33 | 4.8 | 6.4 | 0.08 | 0.08 | 0.00 | 30 | 1009.2 |
| 20260504221615 | 17 | 33 | 4.8 | 6.4 | 0.08 | 0.08 | 0.00 | 30 | 1009.2 |
| 20260504221114 | 17 | 47 | 4.8 | 8.0 | 0.08 | 0.08 | 0.00 | 30 | 1009.0 |
| 20260504220613 | 18 | 42 | 4.8 | 6.4 | 0.05 | 0.05 | 0.00 | 30 | 1008.5 |
| 20260504220113 | 18 | 38 | 4.8 | 8.0 | 0.05 | 0.05 | 0.00 | 29 | 1008.4 |
| 20260504215612 | 18 | 33 | 6.4 | 8.0 | 0.05 | 0.05 | 0.00 | 29 | 1008.4 |
| 20260504215112 | 18 | 40 | 4.8 | 8.0 | 0.00 | 0.00 | 0.00 | 28 | 1008.4 |
| 20260504214611 | 18 | 34 | 4.8 | 6.4 | 0.00 | 0.00 | 0.00 | 28 | 1008.5 |
| 20260504214110 | 18 | 36 | 6.4 | 9.7 | 0.00 | 0.00 | 0.00 | 29 | 1008.3 |
| 20260504213610 | 18 | 36 | 6.4 | 8.0 | 0.00 | 0.00 | 0.00 | 28 | 1008.7 |
| 20260504213519 | 19 | 42 | 4.8 | 6.4 | 0.00 | 0.00 | 0.00 | 24 | 1008.7 |
| 20260504213109 | 19 | 42 | 4.8 | 6.4 | 0.00 | 0.00 | 0.00 | 24 | 1008.7 |
| 20260504212608 | 19 | 38 | 1.6 | 3.2 | 0.00 | 0.00 | 0.00 | 24 | 1008.7 |
| 20260504212108 | 19 | 34 | 3.2 | 6.4 | 0.00 | 0.00 | 0.00 | 24 | 1008.7 |
| 20260504212018 | 19 | 28 | 1.6 | 1.6 | 0.00 | 0.00 | 0.00 | 25 | 1008.9 |
| 20260504211607 | 19 | 28 | 1.6 | 1.6 | 0.00 | 0.00 | 0.00 | 25 | 1008.9 |
| 20260504211518 | 20 | 11 | 1.6 | 1.6 | 0.00 | 0.00 | 0.00 | 24 | 1008.9 |
| 20260504211106 | 20 | 11 | 1.6 | 1.6 | 0.00 | 0.00 | 0.00 | 24 | 1008.9 |
| 20260504211017 | 19 | 34 | 3.2 | 4.8 | 0.00 | 0.00 | 0.00 | 23 | 1008.9 |
| 20260504210606 | 19 | 34 | 3.2 | 4.8 | 0.00 | 0.00 | 0.00 | 23 | 1008.9 |
| 20260504210105 | 19 | 331 | 1.6 | 3.2 | 0.00 | 0.00 | 0.00 | 24 | 1008.9 |
| 20260504205605 | 19 | 42 | 3.2 | 6.4 | 0.00 | 0.00 | 0.00 | 24 | 1008.6 |
| 20260504205104 | 19 | 18 | 1.6 | 3.2 | 0.00 | 0.00 | 0.00 | 25 | 1008.9 |
| 20260504204603 | 19 | 23 | 1.6 | 3.2 | 0.00 | 0.00 | 0.00 | 25 | 1009.0 |
| 20260504204510 | 19 | 34 | 1.6 | 4.8 | 0.00 | 0.00 | 0.00 | 24 | 1009.1 |
| 20260504204103 | 19 | 34 | 1.6 | 4.8 | 0.00 | 0.00 | 0.00 | 24 | 1009.1 |
| 20260504203602 | 18 | 31 | 1.6 | 4.8 | 0.00 | 0.00 | 0.00 | 24 | 1009.2 |
| 20260504203101 | 18 | 29 | 1.6 | 3.2 | 0.00 | 0.00 | 0.00 | 25 | 1009.2 |
| 20260504202601 | 18 | 32 | 6.4 | 8.0 | 0.00 | 0.00 | 0.00 | 26 | 1009.3 |
| 20260504202100 | 19 | 316 | 1.6 | 4.8 | 0.00 | 0.00 | 0.00 | 24 | 1008.9 |
| 20260504202007 | 19 | 290 | 0.0 | 1.6 | 0.00 | 0.00 | 0.00 | 24 | 1009.1 |
| 20260504201559 | 19 | 290 | 0.0 | 1.6 | 0.00 | 0.00 | 0.00 | 24 | 1009.1 |
| 20260504201059 | 18 | 270 | 1.6 | 1.6 | 0.00 | 0.00 | 0.00 | 25 | 1009.1 |
| 20260504200558 | 19 | 281 | 1.6 | 3.2 | 0.00 | 0.00 | 0.00 | 26 | 1009.1 |
| 20260504200057 | 19 | 305 | 1.6 | 1.6 | 0.00 | 0.00 | 0.00 | 25 | 1009.2 |
| 20260504195557 | 20 | 283 | 1.6 | 1.6 | 0.00 | 0.00 | 0.00 | 23 | 1009.1 |
| 20260504195056 | 20 | 253 | 3.2 | 4.8 | 0.00 | 0.00 | 0.00 | 22 | 1009.1 |
| 20260504194555 | 20 | 282 | 1.6 | 1.6 | 0.00 | 0.00 | 0.00 | 22 | 1009.1 |
| 20260504194055 | 20 | 270 | 1.6 | 1.6 | 0.00 | 0.00 | 0.00 | 21 | 1009.1 |
| 20260504193554 | 20 | 285 | 0.0 | 1.6 | 0.00 | 0.00 | 0.00 | 23 | 1009.2 |
| 20260504193054 | 21 | 297 | 0.0 | 1.6 | 0.00 | 0.00 | 0.00 | 21 | 1009.1 |
| 20260504192553 | 21 | 259 | 1.6 | 3.2 | 0.00 | 0.00 | 0.00 | 20 | 823.5 |
| 20260504192052 | 21 | 310 | 1.6 | 3.2 | 0.00 | 0.00 | 0.00 | 20 | 823.5 |
| 20260504191552 | 21 | 283 | 1.6 | 1.6 | 0.00 | 0.00 | 0.00 | 20 | 823.4 |
| 20260504191051 | 21 | 302 | 1.6 | 1.6 | 0.00 | 0.00 | 0.00 | 21 | 823.5 |
| 20260504190551 | 21 | 324 | 1.6 | 3.2 | 0.00 | 0.00 | 0.00 | 21 | 823.4 |
| 20260504190501 | 21 | 35 | 6.4 | 9.7 | 0.00 | 0.00 | 0.00 | 20 | 823.4 |
| 20260504190050 | 21 | 35 | 6.4 | 9.7 | 0.00 | 0.00 | 0.00 | 20 | 823.4 |
| 20260504185549 | 21 | 329 | 0.0 | 1.6 | 0.00 | 0.00 | 0.00 | 21 | 1009.1 |
| 20260504185049 | 21 | 294 | 0.0 | 1.6 | 0.00 | 0.00 | 0.00 | 21 | 1009.1 |
| 20260504184548 | 22 | 298 | 0.0 | 1.6 | 0.00 | 0.00 | 0.00 | 21 | 1009.0 |
| 20260504184047 | 22 | 47 | 1.6 | 1.6 | 0.00 | 0.00 | 0.00 | 22 | 1009.1 |
| 20260504183547 | 22 | 31 | 1.6 | 3.2 | 0.00 | 0.00 | 0.00 | 22 | 1009.1 |
| 20260504183047 | 22 | 324 | 1.6 | 1.6 | 0.00 | 0.00 | 0.00 | 22 | 1009.2 |
| 20260504182546 | 22 | 306 | 1.6 | 1.6 | 0.00 | 0.00 | 0.00 | 23 | 1009.2 |
| 20260504182045 | 22 | 350 | 0.0 | 1.6 | 0.00 | 0.00 | 0.00 | 24 | 1009.2 |
| 20260504181545 | 22 | 1 | 1.6 | 3.2 | 0.00 | 0.00 | 0.00 | 24 | 1009.3 |
| 20260504181044 | 22 | 36 | 1.6 | 4.8 | 0.00 | 0.00 | 0.00 | 23 | 1009.3 |
| 20260504180543 | 22 | 301 | 0.0 | 1.6 | 0.00 | 0.00 | 0.00 | 23 | 1009.5 |
| 20260504180042 | 22 | 0 | 1.6 | 1.6 | 0.00 | 0.00 | 0.00 | 24 | 1009.5 |
| 20260504175542 | 22 | 326 | 0.0 | 1.6 | 0.00 | 0.00 | 0.00 | 23 | 1009.5 |
| 20260504175041 | 22 | 292 | 1.6 | 1.6 | 0.00 | 0.00 | 0.00 | 23 | 1009.6 |
| 20260504174541 | 22 | 282 | 1.6 | 1.6 | 0.00 | 0.00 | 0.00 | 22 | 1009.7 |
| 20260504174040 | 21 | 351 | 0.0 | 1.6 | 0.00 | 0.00 | 0.00 | 25 | 1009.8 |
| 20260504173539 | 21 | 285 | 1.6 | 1.6 | 0.00 | 0.00 | 0.00 | 24 | 1009.8 |
| 20260504173039 | 21 | 312 | 1.6 | 1.6 | 0.00 | 0.00 | 0.00 | 24 | 1009.8 |
| 20260504172538 | 21 | 300 | 1.6 | 1.6 | 0.00 | 0.00 | 0.00 | 25 | 1009.8 |
| 20260504172038 | 21 | 287 | 1.6 | 1.6 | 0.00 | 0.00 | 0.00 | 24 | 1009.8 |
| 20260504171537 | 21 | 286 | 1.6 | 1.6 | 0.00 | 0.00 | 0.00 | 25 | 1009.9 |
| 20260504171036 | 21 | 312 | 0.0 | 1.6 | 0.00 | 0.00 | 0.00 | 25 | 1009.9 |
| 20260504170536 | 21 | 279 | 1.6 | 1.6 | 0.00 | 0.00 | 0.00 | 25 | 1009.9 |
| 20260504151021 | 16 | 285 | 1.6 | 1.6 | 0.00 | 0.00 | 0.00 | 30 | 1010.8 |
| 20260504150520 | 16 | 281 | 1.6 | 1.6 | 0.00 | 0.00 | 0.00 | 30 | 1010.8 |
| 20260504141014 | 12 | 258 | 1.6 | 1.6 | 0.00 | 0.00 | 0.00 | 39 | 1010.9 |
| 20260504140513 | 12 | 270 | 1.6 | 1.6 | 0.00 | 0.00 | 0.00 | 38 | 1010.9 |
| 20260504130505 | 9 | 0 | 0.0 | 0.0 | 0.00 | 0.00 | 0.00 | 47 | 1010.5 |
| 20260504110449 | 8 | 212 | 0.0 | 1.6 | 0.00 | 0.00 | 0.00 | 49 | 1010.6 |